Powrót do katalogu

FENGYUN 1C DEB

AktywnySSO
NORAD 30362·DEBRIS·🇨🇳 China

Wystrzelony May 10, 1999 z Taiyuan Satellite Launch Center

Loading…

Następne Przeloty (najbliższe 24 godziny)

TLE

ŚwieżeSource: Space-Track

Epoka: Sep 14, 2026, 06:35 UTC

1 30362U 99025ABZ 26257.27481615  .00002758  00000-0  14258-2 0  9999
2 30362  99.0503 188.0864 0091339 289.1135  70.0164 14.13711191   570

Śledź FENGYUN 1C DEB w czasie rzeczywistym z AllMySat

Download on the App Store